Tracking 32412 objects as of 6-Dec-2025
HD Live streaming from Space Station
objects crossing your sky now

STARLINK-32190

Track STARLINK-32190 now!
10-day predictions
STARLINK-32190 is classified as:


NORAD ID: 60318
Int'l Code: 2024-133T
Perigee: 481.5 km
Apogee: 483.3 km
Inclination: 53.2 °
Period: 94.1 minutes
Semi major axis: 6853 km
RCS: Unknown
Launch date: July 28, 2024
Source: United States (US)
Launch site: AIR FORCE WESTERN TEST RANGE (AFWTR)
Your satellite tracking list
Your tracking list is empty




NASA's NSSDC Master Catalog

Two Line Element Set (TLE):
1 60318U 24133T   25339.12515090 -.00002865  00000-0 -84691-4 0  9991
2 60318  53.1610  16.1875 0001275  82.5591 277.5554 15.30183755 77163
Source of the keplerian elements: AFSPC